Satellite: NOAA-11 Catalog number: 19531 Epoch time: 12088.24940115 Element set: 866 Inclination: 098.7324 deg RA of node: 175.1055 deg Eccentricity: 0.0011996 Arg of perigee: 093.5292 deg Mean anomaly: 266.7253 deg Mean motion: 14.14957942 rev/day Decay rate: -1.81e-06 rev/day^2 Epoch rev: 21306 Checksum: 309
Satellite: NOAA-12 Catalog number: 21263 Epoch time: 12087.97691931 Element set: 0366 Inclination: 098.7346 deg RA of node: 110.0014 deg Eccentricity: 0.0014797 Arg of perigee: 077.4877 deg Mean anomaly: 282.7956 deg Mean motion: 14.25484828 rev/day Decay rate: 1.4e-07 rev/day^2 Epoch rev: 08498 Checksum: 337
Satellite: MET-3/5 Catalog number: 21655 Epoch time: 12087.63529051 Element set: 0370 Inclination: 082.5588 deg RA of node: 209.7868 deg Eccentricity: 0.0013802 Arg of perigee: 161.6448 deg Mean anomaly: 198.5164 deg Mean motion: 13.17033813 rev/day Decay rate: 5.1e-07 rev/day^2 Epoch rev: 99116 Checksum: 313
Satellite: MET-2/21 Catalog number: 22782 Epoch time: 12087.51646412 Element set: 0375 Inclination: 082.5440 deg RA of node: 097.3151 deg Eccentricity: 0.0023368 Arg of perigee: 025.4520 deg Mean anomaly: 334.7797 deg Mean motion: 13.83677594 rev/day Decay rate: 1.6e-07 rev/day^2 Epoch rev: 93787 Checksum: 322
Satellite: OKEAN-4 Catalog number: 23317 Epoch time: 12087.90210227 Element set: 842 Inclination: 082.5373 deg RA of node: 107.1902 deg Eccentricity: 0.0019577 Arg of perigee: 260.0693 deg Mean anomaly: 099.8314 deg Mean motion: 14.83649980 rev/day Decay rate: 8.12e-06 rev/day^2 Epoch rev: 94275 Checksum: 312
Satellite: NOAA-14 Catalog number: 23455 Epoch time: 12087.94902574 Element set: 0846 Inclination: 098.8283 deg RA of node: 172.4634 deg Eccentricity: 0.0009107 Arg of perigee: 185.9447 deg Mean anomaly: 174.1616 deg Mean motion: 14.13885241 rev/day Decay rate: 3.1e-07 rev/day^2 Epoch rev: 88931 Checksum: 327
Satellite: NOAA-15 Catalog number: 25338 Epoch time: 12088.38307966 Element set: 203 Inclination: 098.6865 deg RA of node: 076.0767 deg Eccentricity: 0.0010463 Arg of perigee: 349.0968 deg Mean anomaly: 010.9991 deg Mean motion: 14.25044860 rev/day Decay rate: 2.7e-07 rev/day^2 Epoch rev: 72134 Checksum: 321
Satellite: RESURS Catalog number: 25394 Epoch time: 12088.54294802 Element set: 48 Inclination: 098.3163 deg RA of node: 081.0454 deg Eccentricity: 0.0002283 Arg of perigee: 101.8716 deg Mean anomaly: 258.2718 deg Mean motion: 14.24279160 rev/day Decay rate: 7.0e-08 rev/day^2 Epoch rev: 71292 Checksum: 287
Satellite: FENGYUN1 Catalog number: 25730 Epoch time: 12087.93322038 Element set: 568 Inclination: 098.8417 deg RA of node: 048.3574 deg Eccentricity: 0.0017607 Arg of perigee: 240.9992 deg Mean anomaly: 118.9405 deg Mean motion: 14.09346464 rev/day Decay rate: 1.214e-05 rev/day^2 Epoch rev: 66316 Checksum: 316
Satellite: OKEAN-0 Catalog number: 25860 Epoch time: 12087.94564301 Element set: 0588 Inclination: 097.9267 deg RA of node: 052.2970 deg Eccentricity: 0.0001495 Arg of perigee: 093.1602 deg Mean anomaly: 266.9775 deg Mean motion: 14.74128904 rev/day Decay rate: 4.03e-06 rev/day^2 Epoch rev: 68260 Checksum: 318
Satellite: NOAA-16 Catalog number: 26536 Epoch time: 12087.66058142 Element set: 0687 Inclination: 099.1036 deg RA of node: 128.4884 deg Eccentricity: 0.0009941 Arg of perigee: 315.6708 deg Mean anomaly: 044.3662 deg Mean motion: 14.12718833 rev/day Decay rate: 3.49e-06 rev/day^2 Epoch rev: 59352 Checksum: 329
Satellite: NOAA-17 Catalog number: 27453 Epoch time: 12087.89102679 Element set: 0649 Inclination: 098.3447 deg RA of node: 119.0060 deg Eccentricity: 0.0012397 Arg of perigee: 039.3178 deg Mean anomaly: 320.8878 deg Mean motion: 14.24408973 rev/day Decay rate: 2.03e-06 rev/day^2 Epoch rev: 50718 Checksum: 327
Satellite: NOAA-18 Catalog number: 28654 Epoch time: 12087.76792161 Element set: 0126 Inclination: 099.0395 deg RA of node: 045.2159 deg Eccentricity: 0.0014818 Arg of perigee: 026.8682 deg Mean anomaly: 333.3231 deg Mean motion: 14.11624239 rev/day Decay rate: 1.47e-06 rev/day^2 Epoch rev: 35307 Checksum: 306
Satellite: NOAA-19 Catalog number: 33591 Epoch time: 12087.89928860 Element set: 0316 Inclination: 098.8591 deg RA of node: 028.7218 deg Eccentricity: 0.0013275 Arg of perigee: 250.5217 deg Mean anomaly: 109.4564 deg Mean motion: 14.11311942 rev/day Decay rate: 2.75e-06 rev/day^2 Epoch rev: 16154 Checksum: 314
/EX SB KEPS @ AMSAT $ORB12088.M Orbital Elements 12088.MISC
HR AMSAT ORBITAL ELEMENTS FOR MANNED AND MISCELLANEOUS SATELLITES FROM WA5QGD FORT WORTH,TX March 28, 2012 Send SUBSCRIBE KEPS/UNSUBSCRIBE KEPS to majordomo@amsat.org only BID: ORB12088.M TO ALL RADIO AMATEURS BT
Satellite: HUBBLE Catalog number: 20580 Epoch time: 12088.01616448 Element set: 971 Inclination: 028.4720 deg RA of node: 314.6585 deg Eccentricity: 0.0003010 Arg of perigee: 268.6534 deg Mean anomaly: 091.3672 deg Mean motion: 15.02311953 rev/day Decay rate: 1.490e-05 rev/day^2 Epoch rev: 251 Checksum: 262
Satellite: ISS Catalog number: 25544 Epoch time: 12088.55601852 Element set: 265 Inclination: 051.6416 deg RA of node: 166.1861 deg Eccentricity: 0.0015617 Arg of perigee: 206.0102 deg Mean anomaly: 352.1545 deg Mean motion: 15.59686678 rev/day Decay rate: 1.8472e-04 rev/day^2 Epoch rev: 76544 Checksum: 308
Satellite: CO-58 Catalog number: 28895 Epoch time: 12087.62899679 Element set: 0135 Inclination: 097.9248 deg RA of node: 317.4379 deg Eccentricity: 0.0018719 Arg of perigee: 050.1880 deg Mean anomaly: 310.0970 deg Mean motion: 14.60535523 rev/day Decay rate: 4.40e-06 rev/day^2 Epoch rev: 34175 Checksum: 341
Satellite: FALCON Catalog number: 30776 Epoch time: 12087.91366001 Element set: 311 Inclination: 035.4325 deg RA of node: 053.0301 deg Eccentricity: 0.0002336 Arg of perigee: 001.1819 deg Mean anomaly: 358.8906 deg Mean motion: 15.06927314 rev/day Decay rate: 3.319e-05 rev/day^2 Epoch rev: 27798 Checksum: 274
Satellite: MAST Catalog number: 31126 Epoch time: 12087.95722118 Element set: 0424 Inclination: 097.8761 deg RA of node: 103.8026 deg Eccentricity: 0.0094208 Arg of perigee: 004.5805 deg Mean anomaly: 355.6238 deg Mean motion: 14.54079859 rev/day Decay rate: 4.08e-06 rev/day^2 Epoch rev: 26246 Checksum: 304
Satellite: CAPE1 Catalog number: 31130 Epoch time: 12088.47539496 Element set: 430 Inclination: 097.8869 deg RA of node: 100.7248 deg Eccentricity: 0.0102489 Arg of perigee: 015.7066 deg Mean anomaly: 344.7290 deg Mean motion: 14.52831853 rev/day Decay rate: 6.20e-06 rev/day^2 Epoch rev: 26205 Checksum: 301
Satellite: COMPASS Catalog number: 32787 Epoch time: 12087.67655182 Element set: 0263 Inclination: 097.8073 deg RA of node: 150.8020 deg Eccentricity: 0.0014744 Arg of perigee: 331.1486 deg Mean anomaly: 028.8933 deg Mean motion: 14.83670127 rev/day Decay rate: 1.786e-05 rev/day^2 Epoch rev: 21172 Checksum: 307
Satellite: AAUSAT2 Catalog number: 32788 Epoch time: 12087.66315361 Element set: 0252 Inclination: 097.8113 deg RA of node: 151.1267 deg Eccentricity: 0.0014081 Arg of perigee: 332.6351 deg Mean anomaly: 027.4138 deg Mean motion: 14.83961187 rev/day Decay rate: 1.341e-05 rev/day^2 Epoch rev: 21174 Checksum: 282
Satellite: DO-64 Catalog number: 32789 Epoch time: 12087.71889867 Element set: 0267 Inclination: 097.8195 deg RA of node: 152.9102 deg Eccentricity: 0.0013905 Arg of perigee: 328.2281 deg Mean anomaly: 031.8097 deg Mean motion: 14.85217948 rev/day Decay rate: 2.262e-05 rev/day^2 Epoch rev: 21178 Checksum: 346
Satellite: CO-66 Catalog number: 32791 Epoch time: 12087.63568486 Element set: 0256 Inclination: 097.8080 deg RA of node: 150.5641 deg Eccentricity: 0.0015075 Arg of perigee: 331.1342 deg Mean anomaly: 028.8999 deg Mean motion: 14.83145540 rev/day Decay rate: 1.099e-05 rev/day^2 Epoch rev: 21165 Checksum: 323
Satellite: RS-30 Catalog number: 32953 Epoch time: 12088.23826990 Element set: 648 Inclination: 082.5068 deg RA of node: 345.4821 deg Eccentricity: 0.0019349 Arg of perigee: 121.5970 deg Mean anomaly: 238.7006 deg Mean motion: 12.43021674 rev/day Decay rate: 1.0e-07 rev/day^2 Epoch rev: 17450 Checksum: 293
Satellite: TACSAT-3 Catalog number: 35001 Epoch time: 12087.74583042 Element set: 0925 Inclination: 040.4457 deg RA of node: 214.0655 deg Eccentricity: 0.0011651 Arg of perigee: 026.6683 deg Mean anomaly: 333.4743 deg Mean motion: 15.85777844 rev/day Decay rate: 2.02185e-03 rev/day^2 Epoch rev: 16155 Checksum: 297
Satellite: PHARMSAT Catalog number: 35002 Epoch time: 12088.57152688 Element set: 840 Inclination: 040.4638 deg RA of node: 217.7335 deg Eccentricity: 0.0002903 Arg of perigee: 275.8509 deg Mean anomaly: 084.1951 deg Mean motion: 15.69961702 rev/day Decay rate: 6.6783e-04 rev/day^2 Epoch rev: 16159 Checksum: 319
Satellite: METEOR-M Catalog number: 35865 Epoch time: 12088.22357183 Element set: 273 Inclination: 098.6640 deg RA of node: 144.0329 deg Eccentricity: 0.0001745 Arg of perigee: 301.5027 deg Mean anomaly: 058.5978 deg Mean motion: 14.21858194 rev/day Decay rate: -9.0e-08 rev/day^2 Epoch rev: 13109 Checksum: 301
Satellite: RS-38 Catalog number: 35869 Epoch time: 12088.18610434 Element set: 280 Inclination: 098.6598 deg RA of node: 144.0045 deg Eccentricity: 0.0003823 Arg of perigee: 292.0952 deg Mean anomaly: 067.9821 deg Mean motion: 14.22060558 rev/day Decay rate: 2.3e-07 rev/day^2 Epoch rev: 13110 Checksum: 294
Satellite: JUGNU Catalog number: 37839 Epoch time: 12087.48076735 Element set: 116 Inclination: 019.9603 deg RA of node: 133.2274 deg Eccentricity: 0.0019401 Arg of perigee: 043.4242 deg Mean anomaly: 316.7688 deg Mean motion: 14.12037981 rev/day Decay rate: 6.19e-06 rev/day^2 Epoch rev: 2368 Checksum: 299
